[Date Prev][Date Next][Thread Prev][Thread Next] - [Date Index][Thread Index][Author Index]

2 Line ISS Keps 10-28



ISS
1 25544U 98067A   01301.06822006  .00065504  00000-0  83821-3 0  6597
2 25544  51.6388 140.4013 0008668 253.7972 246.6691 15.58545712167819


----
Via the sarex mailing list at AMSAT.ORG courtesy of AMSAT-NA.
To unsubscribe, send "unsubscribe sarex" to Majordomo@amsat.org



AMSAT Top AMSAT Home